Time,TemperatureF,DewpointF,PressureIn,WindDirection,WindDirectionDegrees,WindSpeedMPH,WindSpeedGustMPH,Humidity,HourlyPrecipIn,Conditions,Clouds,dailyrainin,SoftwareType,DateUTC
2013-05-18 00:01:00,66.2,61.6,29.92,SE,140,0.0,0.0,85,0.00,-RA,OVC,0.00,WeatherDisplay:10.37,2013-05-18 04:01:00,
2013-05-18 00:06:00,66.0,61.4,29.92,SE,140,0.0,0.0,85,0.00,OVC,,0.00,WeatherDisplay:10.37,2013-05-18 04:06:00,
2013-05-18 00:11:00,66.0,61.7,29.92,SE,140,0.0,0.0,86,0.00,OVC,,0.00,WeatherDisplay:10.37,2013-05-18 04:11:00,
2013-05-18 00:16:00,66.0,61.7,29.92,SE,140,0.0,0.0,86,0.00,-RA,OVC,0.00,WeatherDisplay:10.37,2013-05-18 04:16:00,
2013-05-18 00:21:00,66.0,61.7,29.92,SE,140,0.0,0.0,86,0.00,-RA,OVC,0.00,WeatherDisplay:10.37,2013-05-18 04:21:00,
2013-05-18 00:26:00,66.0,61.7,29.92,SE,140,0.0,0.0,86,0.00,-RA,OVC,0.00,WeatherDisplay:10.37,2013-05-18 04:26:00,
2013-05-18 00:31:00,66.0,61.7,29.92,SE,140,0.0,0.0,86,0.00,-RA,OVC,0.00,WeatherDisplay:10.37,2013-05-18 04:31:00,
2013-05-18 00:36:00,65.8,61.5,29.92,SE,140,0.0,0.0,86,0.00,-RA,OVC,0.00,WeatherDisplay:10.37,2013-05-18 04:36:00,
2013-05-18 00:41:00,65.8,61.5,29.92,SE,140,0.0,0.0,86,0.00,-RA,OVC,0.00,WeatherDisplay:10.37,2013-05-18 04:41:00,
2013-05-18 00:46:00,65.8,61.9,29.92,SE,140,0.0,0.0,87,0.00,-RA,OVC,0.00,WeatherDisplay:10.37,2013-05-18 04:46:00,
2013-05-18 00:51:00,65.8,61.9,29.93,SE,140,0.0,0.0,87,0.00,-RA,OVC,0.00,WeatherDisplay:10.37,2013-05-18 04:51:00,
2013-05-18 00:56:00,65.8,62.2,29.93,SE,140,0.0,0.0,88,0.00,-RA,OVC,0.00,WeatherDisplay:10.37,2013-05-18 04:56:00,
2013-05-18 01:01:00,65.8,62.2,29.93,SE,140,0.0,0.0,88,0.00,-RA,OVC,0.00,WeatherDisplay:10.37,2013-05-18 05:01:00,
2013-05-18 01:06:00,65.8,62.2,29.92,SE,140,0.0,0.0,88,0.00,-RA,OVC,0.00,WeatherDisplay:10.37,2013-05-18 05:06:00,
2013-05-18 01:11:00,65.7,62.0,29.92,SE,140,0.0,0.0,88,0.00,-RA,OVC,0.00,WeatherDisplay:10.37,2013-05-18 05:11:00,
2013-05-18 01:16:00,65.5,61.8,29.92,West,270,3.5,3.5,88,0.00,-RA,OVC,0.00,WeatherDisplay:10.37,2013-05-18 05:16:00,
2013-05-18 01:21:00,65.5,61.8,29.93,West,270,3.5,3.5,88,0.00,-RA,OVC,0.00,WeatherDisplay:10.37,2013-05-18 05:21:00,
2013-05-18 01:26:00,65.5,61.8,29.92,West,270,3.5,3.5,88,0.00,-RA,OVC,0.00,WeatherDisplay:10.37,2013-05-18 05:26:00,
2013-05-18 01:31:00,65.5,62.2,29.92,West,270,3.5,3.5,89,0.00,-RA,OVC,0.00,WeatherDisplay:10.37,2013-05-18 05:31:00,
2013-05-18 01:36:00,65.5,62.2,29.92,West,270,3.5,3.5,89,0.00,-RA,OVC,0.00,WeatherDisplay:10.37,2013-05-18 05:36:00,
2013-05-18 01:41:00,65.5,62.2,29.92,West,270,3.5,3.5,89,0.00,-RA,OVC,0.00,WeatherDisplay:10.37,2013-05-18 05:41:00,
2013-05-18 01:46:00,65.5,61.8,29.92,West,270,3.5,3.5,88,0.00,-RA,OVC,0.00,WeatherDisplay:10.37,2013-05-18 05:46:00,
2013-05-18 01:51:00,65.5,61.8,29.92,West,270,3.5,3.5,88,0.00,-RA,OVC,0.00,WeatherDisplay:10.37,2013-05-18 05:51:00,
2013-05-18 01:56:00,65.5,61.8,29.92,West,270,3.5,3.5,88,0.00,-RA,OVC,0.00,WeatherDisplay:10.37,2013-05-18 05:56:00,
2013-05-18 02:01:00,65.5,61.8,29.91,West,270,3.5,3.5,88,0.00,-RA,OVC,0.00,WeatherDisplay:10.37,2013-05-18 06:01:00,
2013-05-18 02:06:00,65.3,62.0,29.91,West,270,3.5,3.5,89,0.00,-RA,OVC,0.00,WeatherDisplay:10.37,2013-05-18 06:06:00,
2013-05-18 02:11:00,65.3,62.0,29.91,West,270,3.5,3.5,89,0.00,-RA,OVC,0.00,WeatherDisplay:10.37,2013-05-18 06:11:00,
2013-05-18 02:16:00,65.3,62.0,29.91,NNW,340,3.5,3.5,89,0.00,-RA,OVC,0.00,WeatherDisplay:10.37,2013-05-18 06:16:00,
2013-05-18 02:21:00,65.5,62.5,29.90,NNW,340,3.5,3.5,90,0.00,-RA,OVC,0.00,WeatherDisplay:10.37,2013-05-18 06:21:00,
2013-05-18 02:26:00,65.5,62.2,29.91,NNW,340,3.5,3.5,89,0.00,-RA,OVC,0.00,WeatherDisplay:10.37,2013-05-18 06:26:00,
2013-05-18 02:31:00,65.5,62.5,29.91,NNW,340,3.5,3.5,90,0.00,-RA,OVC,0.00,WeatherDisplay:10.37,2013-05-18 06:31:00,
2013-05-18 02:36:00,65.5,62.2,29.90,NNW,340,3.5,3.5,89,0.00,-RA,OVC,0.00,WeatherDisplay:10.37,2013-05-18 06:36:00,
2013-05-18 02:41:00,65.5,62.2,29.90,NNW,340,3.5,3.5,89,0.00,-RA,OVC,0.00,WeatherDisplay:10.37,2013-05-18 06:41:00,
2013-05-18 02:46:00,65.5,62.2,29.90,NNW,340,3.5,3.5,89,0.00,-RA,OVC,0.00,WeatherDisplay:10.37,2013-05-18 06:46:00,
2013-05-18 02:51:00,65.3,62.0,29.90,NNW,340,3.5,3.5,89,0.00,-RA,OVC,0.00,WeatherDisplay:10.37,2013-05-18 06:51:00,
2013-05-18 02:56:00,65.3,62.0,29.90,NNW,340,3.5,3.5,89,0.00,-RA,OVC,0.00,WeatherDisplay:10.37,2013-05-18 06:56:00,
2013-05-18 03:01:00,65.3,62.3,29.90,NNW,340,3.5,3.5,90,0.00,-RA,OVC,0.00,WeatherDisplay:10.37,2013-05-18 07:01:00,
2013-05-18 03:06:00,65.5,62.5,29.90,NNW,340,3.5,3.5,90,0.00,-RA,OVC,0.00,WeatherDisplay:10.37,2013-05-18 07:06:00,
2013-05-18 03:11:00,65.3,62.3,29.90,NNW,340,3.5,3.5,90,0.00,-RA,OVC,0.00,WeatherDisplay:10.37,2013-05-18 07:11:00,
2013-05-18 03:16:00,65.3,62.3,29.90,North,360,3.5,3.5,90,0.00,-RA,OVC,0.00,WeatherDisplay:10.37,2013-05-18 07:16:00,
2013-05-18 03:21:00,65.3,62.3,29.90,North,360,3.5,3.5,90,0.00,-RA,OVC,0.00,WeatherDisplay:10.37,2013-05-18 07:21:00,
2013-05-18 03:26:00,65.3,62.3,29.90,North,360,3.5,3.5,90,0.00,-RA,OVC,0.00,WeatherDisplay:10.37,2013-05-18 07:26:00,
2013-05-18 03:31:00,65.3,62.3,29.90,North,360,3.5,3.5,90,0.00,-RA,OVC,0.00,WeatherDisplay:10.37,2013-05-18 07:31:00,
2013-05-18 03:36:00,65.3,62.3,29.90,North,360,3.5,3.5,90,0.00,-RA,OVC,0.00,WeatherDisplay:10.37,2013-05-18 07:36:00,
2013-05-18 03:41:00,65.3,62.3,29.90,North,360,3.5,3.5,90,0.00,-RA,OVC,0.00,WeatherDisplay:10.37,2013-05-18 07:41:00,
2013-05-18 03:46:00,65.3,62.3,29.89,North,360,3.5,3.5,90,0.00,-RA,OVC,0.00,WeatherDisplay:10.37,2013-05-18 07:46:00,
2013-05-18 03:51:00,65.3,62.3,29.89,North,360,3.5,3.5,90,0.00,-RA,OVC,0.00,WeatherDisplay:10.37,2013-05-18 07:51:00,
2013-05-18 03:56:00,65.3,62.3,29.89,North,360,3.5,3.5,90,0.00,-RA,OVC,0.00,WeatherDisplay:10.37,2013-05-18 07:56:00,
2013-05-18 04:01:00,65.3,62.3,29.89,North,360,3.5,3.5,90,0.00,-RA,OVC,0.00,WeatherDisplay:10.37,2013-05-18 08:01:00,
2013-05-18 04:06:00,65.3,62.3,29.89,North,360,3.5,3.5,90,0.00,-RA,OVC,0.00,WeatherDisplay:10.37,2013-05-18 08:06:00,
2013-05-18 04:11:00,65.1,62.1,29.89,North,360,3.5,3.5,90,0.00,-RA,OVC,0.00,WeatherDisplay:10.37,2013-05-18 08:11:00,
2013-05-18 04:16:00,65.1,62.1,29.89,North,360,3.5,0.0,90,0.00,-RA,OVC,0.00,WeatherDisplay:10.37,2013-05-18 08:16:00,
2013-05-18 04:21:00,65.1,62.1,29.89,North,360,0.0,0.0,90,0.00,-RA,OVC,0.00,WeatherDisplay:10.37,2013-05-18 08:21:00,
2013-05-18 04:26:00,65.1,62.1,29.89,North,360,0.0,0.0,90,0.00,-RA,OVC,0.00,WeatherDisplay:10.37,2013-05-18 08:26:00,
2013-05-18 04:31:00,65.1,62.1,29.89,North,360,0.0,0.0,90,0.00,-RA,OVC,0.00,WeatherDisplay:10.37,2013-05-18 08:31:00,
2013-05-18 04:36:00,65.1,62.1,29.90,North,360,0.0,0.0,90,0.00,-RA,OVC,0.00,WeatherDisplay:10.37,2013-05-18 08:36:00,
2013-05-18 04:41:00,65.1,62.4,29.90,North,360,0.0,0.0,91,0.00,-RA,OVC,0.00,WeatherDisplay:10.37,2013-05-18 08:41:00,
2013-05-18 04:46:00,65.1,62.1,29.90,North,360,0.0,0.0,90,0.00,-RA,OVC,0.00,WeatherDisplay:10.37,2013-05-18 08:46:00,
2013-05-18 04:51:00,65.1,62.1,29.90,North,360,0.0,0.0,90,0.00,-RA,OVC,0.00,WeatherDisplay:10.37,2013-05-18 08:51:00,
2013-05-18 04:56:00,65.1,62.1,29.89,North,360,0.0,0.0,90,0.00,-RA,OVC,0.00,WeatherDisplay:10.37,2013-05-18 08:56:00,
2013-05-18 05:01:00,64.9,61.9,29.89,North,360,0.0,0.0,90,0.00,-RA,OVC,0.00,WeatherDisplay:10.37,2013-05-18 09:01:00,
2013-05-18 05:06:00,64.9,62.2,29.89,North,360,0.0,0.0,91,0.00,-RA,OVC,0.00,WeatherDisplay:10.37,2013-05-18 09:06:00,
2013-05-18 05:11:00,64.9,62.2,29.89,North,360,0.0,0.0,91,0.00,-RA,OVC,0.00,WeatherDisplay:10.37,2013-05-18 09:11:00,
2013-05-18 05:16:00,64.9,62.2,29.89,North,360,0.0,0.0,91,0.00,-RA,OVC,0.00,WeatherDisplay:10.37,2013-05-18 09:16:00,
2013-05-18 05:21:00,64.9,62.2,29.89,North,360,0.0,0.0,91,0.00,-RA,OVC,0.00,WeatherDisplay:10.37,2013-05-18 09:21:00,
2013-05-18 05:26:00,64.9,62.2,29.90,North,360,0.0,0.0,91,0.00,-RA,OVC,0.00,WeatherDisplay:10.37,2013-05-18 09:26:00,
2013-05-18 05:31:00,64.8,62.1,29.90,North,360,0.0,0.0,91,0.00,-RA,OVC,0.00,WeatherDisplay:10.37,2013-05-18 09:31:00,
2013-05-18 05:36:00,64.8,62.1,29.90,North,360,0.0,0.0,91,0.00,-RA,OVC,0.00,WeatherDisplay:10.37,2013-05-18 09:36:00,
2013-05-18 05:41:00,64.8,62.1,29.90,North,360,0.0,0.0,91,0.00,-RA,OVC,0.00,WeatherDisplay:10.37,2013-05-18 09:41:00,
2013-05-18 05:46:00,64.8,62.1,29.90,North,360,0.0,0.0,91,0.00,-RA,OVC,0.00,WeatherDisplay:10.37,2013-05-18 09:46:00,
2013-05-18 05:51:00,64.8,62.1,29.90,North,360,0.0,0.0,91,0.00,-RA,OVC,0.00,WeatherDisplay:10.37,2013-05-18 09:51:00,
2013-05-18 05:56:00,64.8,62.1,29.90,North,360,0.0,0.0,91,0.00,-RA,OVC,0.00,WeatherDisplay:10.37,2013-05-18 09:56:00,
2013-05-18 06:01:00,64.8,62.1,29.90,North,360,0.0,0.0,91,0.00,-RA,OVC,0.00,WeatherDisplay:10.37,2013-05-18 10:01:00,
2013-05-18 06:06:00,64.6,61.9,29.91,North,360,0.0,0.0,91,0.00,-RA,OVC,0.00,WeatherDisplay:10.37,2013-05-18 10:06:00,
2013-05-18 06:11:00,64.6,61.9,29.91,North,360,0.0,0.0,91,0.00,-RA,OVC,0.00,WeatherDisplay:10.37,2013-05-18 10:11:00,
2013-05-18 06:16:00,64.6,61.9,29.91,North,360,0.0,0.0,91,0.00,BKN,OVC,0.00,WeatherDisplay:10.37,2013-05-18 10:16:00,
2013-05-18 06:21:00,64.6,61.9,29.91,North,360,0.0,0.0,91,0.00,BKN,OVC,0.00,WeatherDisplay:10.37,2013-05-18 10:21:00,
2013-05-18 06:26:00,64.6,61.9,29.92,North,360,0.0,0.0,91,0.00,BKN,OVC,0.00,WeatherDisplay:10.37,2013-05-18 10:26:00,
2013-05-18 06:31:00,64.6,61.9,29.93,North,360,0.0,0.0,91,0.00,BKN,OVC,0.00,WeatherDisplay:10.37,2013-05-18 10:31:00,
2013-05-18 06:36:00,64.6,61.9,29.92,North,360,0.0,0.0,91,0.00,BKN,OVC,0.00,WeatherDisplay:10.37,2013-05-18 10:36:00,
2013-05-18 06:41:00,64.6,61.9,29.92,North,360,0.0,0.0,91,0.00,BKN,OVC,0.00,WeatherDisplay:10.37,2013-05-18 10:41:00,
2013-05-18 06:46:00,64.6,61.9,29.92,North,360,0.0,0.0,91,0.00,BKN,OVC,0.00,WeatherDisplay:10.37,2013-05-18 10:46:00,
2013-05-18 06:51:00,64.6,61.9,29.92,North,360,0.0,0.0,91,0.00,BKN,OVC,0.00,WeatherDisplay:10.37,2013-05-18 10:51:00,
2013-05-18 06:56:00,64.6,61.9,29.92,North,360,0.0,0.0,91,0.00,BKN,OVC,0.00,WeatherDisplay:10.37,2013-05-18 10:56:00,
2013-05-18 07:01:00,64.6,61.9,29.92,North,360,0.0,0.0,91,0.00,BKN,OVC,0.00,WeatherDisplay:10.37,2013-05-18 11:01:00,
2013-05-18 07:06:00,64.4,62.0,29.92,North,360,0.0,0.0,92,0.00,BKN,OVC,0.00,WeatherDisplay:10.37,2013-05-18 11:06:00,
2013-05-18 07:11:00,64.4,62.0,29.92,North,360,0.0,0.0,92,0.00,BKN,OVC,0.00,WeatherDisplay:10.37,2013-05-18 11:11:00,
2013-05-18 07:16:00,64.4,62.0,29.92,South,170,0.0,4.6,92,0.00,-RA,OVC,0.00,WeatherDisplay:10.37,2013-05-18 11:16:00,
2013-05-18 07:21:00,64.4,62.0,29.92,South,170,4.6,4.6,92,0.00,-RA,OVC,0.00,WeatherDisplay:10.37,2013-05-18 11:21:00,
2013-05-18 07:26:00,64.4,62.0,29.92,South,170,4.6,4.6,92,0.00,-RA,OVC,0.00,WeatherDisplay:10.37,2013-05-18 11:26:00,
2013-05-18 07:31:00,64.6,62.2,29.92,South,170,4.6,4.6,92,0.00,-RA,OVC,0.00,WeatherDisplay:10.37,2013-05-18 11:31:00,
2013-05-18 07:36:00,64.4,62.0,29.92,South,170,4.6,4.6,92,0.00,-RA,OVC,0.00,WeatherDisplay:10.37,2013-05-18 11:36:00,
2013-05-18 07:41:00,64.4,62.0,29.92,South,170,4.6,4.6,92,0.00,-RA,OVC,0.00,WeatherDisplay:10.37,2013-05-18 11:41:00,
2013-05-18 07:46:00,64.6,62.2,29.93,South,170,4.6,0.0,92,0.00,-RA,OVC,0.00,WeatherDisplay:10.37,2013-05-18 11:46:00,
2013-05-18 07:51:00,64.6,62.2,29.93,South,170,0.0,0.0,92,0.00,-RA,OVC,0.00,WeatherDisplay:10.37,2013-05-18 11:51:00,
2013-05-18 07:56:00,64.4,62.0,29.93,South,170,0.0,0.0,92,0.00,-RA,OVC,0.00,WeatherDisplay:10.37,2013-05-18 11:56:00,
2013-05-18 08:01:00,64.4,62.0,29.93,South,170,0.0,0.0,92,0.00,-RA,OVC,0.00,WeatherDisplay:10.37,2013-05-18 12:01:00,
2013-05-18 08:06:00,64.6,62.2,29.93,South,170,0.0,0.0,92,0.00,-RA,OVC,0.00,WeatherDisplay:10.37,2013-05-18 12:06:00,
2013-05-18 08:11:00,64.2,61.8,29.93,South,170,0.0,0.0,92,0.00,-RA,OVC,0.00,WeatherDisplay:10.37,2013-05-18 12:11:00,
2013-05-18 08:16:00,64.6,62.2,29.93,SSW,200,4.6,4.6,92,0.00,OVC,,0.00,WeatherDisplay:10.37,2013-05-18 12:16:00,
2013-05-18 08:21:00,64.6,62.2,29.94,SSW,200,4.6,4.6,92,0.00,OVC,,0.00,WeatherDisplay:10.37,2013-05-18 12:21:00,
2013-05-18 08:26:00,64.4,62.0,29.93,SSW,200,4.6,4.6,92,0.00,OVC,,0.00,WeatherDisplay:10.37,2013-05-18 12:26:00,
2013-05-18 08:31:00,64.4,62.0,29.94,SSW,200,4.6,4.6,92,0.00,OVC,,0.00,WeatherDisplay:10.37,2013-05-18 12:31:00,
2013-05-18 08:36:00,64.6,62.2,29.94,SSW,200,4.6,4.6,92,0.00,OVC,,0.00,WeatherDisplay:10.37,2013-05-18 12:36:00,
2013-05-18 08:41:00,64.2,61.8,29.93,SSW,200,4.6,4.6,92,0.00,OVC,,0.00,WeatherDisplay:10.37,2013-05-18 12:41:00,
2013-05-18 08:46:00,64.2,61.8,29.93,SSW,200,4.6,4.6,92,0.00,OVC,,0.00,WeatherDisplay:10.37,2013-05-18 12:46:00,
2013-05-18 08:51:00,64.4,62.0,29.94,SSW,200,4.6,4.6,92,0.00,OVC,,0.00,WeatherDisplay:10.37,2013-05-18 12:51:00,
2013-05-18 08:56:00,64.2,61.8,29.93,SSW,200,4.6,4.6,92,0.00,OVC,,0.00,WeatherDisplay:10.37,2013-05-18 12:56:00,
2013-05-18 09:01:00,64.2,61.8,29.93,SSW,200,4.6,4.6,92,0.00,OVC,,0.00,WeatherDisplay:10.37,2013-05-18 13:01:00,
2013-05-18 09:06:00,64.4,62.0,29.93,SSW,200,4.6,4.6,92,0.00,OVC,,0.00,WeatherDisplay:10.37,2013-05-18 13:06:00,
2013-05-18 09:11:00,64.4,62.0,29.94,SSW,200,4.6,4.6,92,0.00,OVC,,0.00,WeatherDisplay:10.37,2013-05-18 13:11:00,
2013-05-18 09:16:00,64.6,62.2,29.95,SE,130,4.6,4.6,92,0.00,BKN,OVC,0.00,WeatherDisplay:10.37,2013-05-18 13:16:00,
2013-05-18 09:21:00,64.6,62.2,29.94,SE,130,3.5,3.5,92,0.00,BKN,OVC,0.00,WeatherDisplay:10.37,2013-05-18 13:21:00,
2013-05-18 09:26:00,64.8,62.7,29.94,SE,130,3.5,3.5,93,0.00,BKN,OVC,0.00,WeatherDisplay:10.37,2013-05-18 13:26:00,
2013-05-18 09:31:00,64.9,62.9,29.94,SE,130,3.5,3.5,93,0.00,BKN,OVC,0.00,WeatherDisplay:10.37,2013-05-18 13:31:00,
2013-05-18 09:36:00,64.9,62.9,29.95,SE,130,3.5,3.5,93,0.00,BKN,OVC,0.00,WeatherDisplay:10.37,2013-05-18 13:36:00,
2013-05-18 09:41:00,65.1,63.0,29.94,SE,130,3.5,3.5,93,0.00,BKN,OVC,0.00,WeatherDisplay:10.37,2013-05-18 13:41:00,
2013-05-18 09:46:00,65.3,63.2,29.94,SE,130,3.5,3.5,93,0.00,BKN,OVC,0.00,WeatherDisplay:10.37,2013-05-18 13:46:00,
2013-05-18 09:51:00,65.3,63.2,29.95,SE,130,3.5,3.5,93,0.00,BKN,OVC,0.00,WeatherDisplay:10.37,2013-05-18 13:51:00,
2013-05-18 09:56:00,65.7,63.6,29.95,SE,130,3.5,3.5,93,0.00,BKN,OVC,0.00,WeatherDisplay:10.37,2013-05-18 13:56:00,
2013-05-18 10:01:00,65.8,63.8,29.94,SE,130,3.5,3.5,93,0.00,BKN,OVC,0.00,WeatherDisplay:10.37,2013-05-18 14:01:00,
2013-05-18 10:06:00,66.0,63.9,29.95,SE,130,3.5,3.5,93,0.00,BKN,OVC,0.00,WeatherDisplay:10.37,2013-05-18 14:06:00,
2013-05-18 10:11:00,66.0,63.9,29.94,SE,130,3.5,3.5,93,0.00,BKN,OVC,0.00,WeatherDisplay:10.37,2013-05-18 14:11:00,
2013-05-18 10:16:00,66.4,64.3,29.94,SE,140,4.6,4.6,93,0.00,OVC,,0.00,WeatherDisplay:10.37,2013-05-18 14:16:00,
2013-05-18 10:21:00,66.6,64.5,29.94,SE,140,4.6,4.6,93,0.00,OVC,,0.00,WeatherDisplay:10.37,2013-05-18 14:21:00,
2013-05-18 10:26:00,66.7,64.7,29.94,SE,140,4.6,4.6,93,0.00,OVC,,0.00,WeatherDisplay:10.37,2013-05-18 14:26:00,
2013-05-18 10:31:00,67.1,65.0,29.94,SE,140,4.6,4.6,93,0.00,OVC,,0.00,WeatherDisplay:10.37,2013-05-18 14:31:00,
2013-05-18 10:36:00,67.3,64.9,29.94,SE,140,4.6,4.6,92,0.00,OVC,,0.00,WeatherDisplay:10.37,2013-05-18 14:36:00,
2013-05-18 10:41:00,67.6,65.2,29.94,SE,140,4.6,4.6,92,0.00,OVC,,0.00,WeatherDisplay:10.37,2013-05-18 14:41:00,
2013-05-18 10:46:00,67.6,65.2,29.93,SSW,200,4.6,4.6,92,0.00,OVC,,0.00,WeatherDisplay:10.37,2013-05-18 14:46:00,
2013-05-18 10:51:00,67.8,65.4,29.93,SSW,200,4.6,4.6,92,0.00,OVC,,0.00,WeatherDisplay:10.37,2013-05-18 14:51:00,
2013-05-18 10:56:00,68.0,65.6,29.93,SSW,200,4.6,4.6,92,0.00,OVC,,0.00,WeatherDisplay:10.37,2013-05-18 14:56:00,
2013-05-18 11:01:00,68.2,65.5,29.93,SSW,200,4.6,4.6,91,0.00,OVC,,0.00,WeatherDisplay:10.37,2013-05-18 15:01:00,
2013-05-18 11:06:00,68.2,65.5,29.93,SSW,200,4.6,4.6,91,0.00,OVC,,0.00,WeatherDisplay:10.37,2013-05-18 15:06:00,
2013-05-18 11:11:00,68.4,65.6,29.93,SSW,200,4.6,4.6,91,0.00,OVC,,0.00,WeatherDisplay:10.37,2013-05-18 15:11:00,
2013-05-18 11:16:00,68.7,65.7,29.93,SSW,200,4.6,4.6,90,0.00,BKN,OVC,0.00,WeatherDisplay:10.37,2013-05-18 15:16:00,
2013-05-18 11:21:00,68.9,65.5,29.93,SSW,200,4.6,4.6,89,0.00,BKN,OVC,0.00,WeatherDisplay:10.37,2013-05-18 15:21:00,
2013-05-18 11:26:00,69.1,65.7,29.93,SSW,200,4.6,4.6,89,0.00,BKN,OVC,0.00,WeatherDisplay:10.37,2013-05-18 15:26:00,
2013-05-18 11:31:00,69.4,66.1,29.93,SSW,200,4.6,4.6,89,0.00,BKN,OVC,0.00,WeatherDisplay:10.37,2013-05-18 15:31:00,
2013-05-18 11:36:00,69.6,66.2,29.93,SSW,200,4.6,4.6,89,0.00,BKN,OVC,0.00,WeatherDisplay:10.37,2013-05-18 15:36:00,
2013-05-18 11:41:00,69.4,66.1,29.93,SSW,200,4.6,4.6,89,0.00,BKN,OVC,0.00,WeatherDisplay:10.37,2013-05-18 15:41:00,
2013-05-18 11:46:00,69.6,65.9,29.93,SSE,150,5.8,5.8,88,0.00,BKN,OVC,0.00,WeatherDisplay:10.37,2013-05-18 15:46:00,
2013-05-18 11:51:00,69.4,65.7,29.93,SSE,150,5.8,5.8,88,0.00,BKN,OVC,0.00,WeatherDisplay:10.37,2013-05-18 15:51:00,
2013-05-18 11:56:00,69.4,65.4,29.93,SSE,150,5.8,5.8,87,0.00,BKN,OVC,0.00,WeatherDisplay:10.37,2013-05-18 15:56:00,
2013-05-18 12:01:00,69.6,65.6,29.93,SSE,150,5.8,5.8,87,0.00,BKN,OVC,0.00,WeatherDisplay:10.37,2013-05-18 16:01:00,
2013-05-18 12:06:00,69.6,65.6,29.93,SSE,150,5.8,5.8,87,0.00,BKN,OVC,0.00,WeatherDisplay:10.37,2013-05-18 16:06:00,
2013-05-18 12:11:00,70.0,65.9,29.93,SSE,150,5.8,5.8,87,0.00,BKN,OVC,0.00,WeatherDisplay:10.37,2013-05-18 16:11:00,
2013-05-18 12:16:00,70.3,66.0,29.93,South,190,8.1,8.1,86,0.00,BKN,OVC,0.00,WeatherDisplay:10.37,2013-05-18 16:16:00,
2013-05-18 12:21:00,70.3,66.0,29.93,South,190,8.1,8.1,86,0.00,BKN,OVC,0.00,WeatherDisplay:10.37,2013-05-18 16:21:00,
2013-05-18 12:26:00,70.5,66.1,29.93,South,190,8.1,8.1,86,0.00,BKN,OVC,0.00,WeatherDisplay:10.37,2013-05-18 16:26:00,
2013-05-18 12:31:00,70.7,66.0,29.93,South,190,8.1,8.1,85,0.00,BKN,OVC,0.00,WeatherDisplay:10.37,2013-05-18 16:31:00,
2013-05-18 12:36:00,70.9,66.5,29.93,South,190,8.1,8.1,86,0.00,BKN,OVC,0.00,WeatherDisplay:10.37,2013-05-18 16:36:00,
2013-05-18 12:41:00,71.2,66.8,29.93,South,190,8.1,8.1,86,0.00,BKN,OVC,0.00,WeatherDisplay:10.37,2013-05-18 16:41:00,
2013-05-18 12:46:00,71.4,66.7,29.93,South,190,8.1,8.1,85,0.00,BKN,OVC,0.00,WeatherDisplay:10.37,2013-05-18 16:46:00,
2013-05-18 12:51:00,71.6,66.5,29.93,South,190,8.1,8.1,84,0.00,BKN,OVC,0.00,WeatherDisplay:10.37,2013-05-18 16:51:00,
2013-05-18 12:56:00,71.8,66.7,29.93,South,190,8.1,8.1,84,0.00,BKN,OVC,0.00,WeatherDisplay:10.37,2013-05-18 16:56:00,
2013-05-18 13:01:00,72.1,67.0,29.93,South,190,8.1,8.1,84,0.00,BKN,OVC,0.00,WeatherDisplay:10.37,2013-05-18 17:01:00,
2013-05-18 13:06:00,72.3,66.9,29.93,South,190,8.1,8.1,83,0.00,BKN,OVC,0.00,WeatherDisplay:10.37,2013-05-18 17:06:00,
2013-05-18 13:11:00,72.3,66.5,29.93,South,190,8.1,8.1,82,0.00,BKN,OVC,0.00,WeatherDisplay:10.37,2013-05-18 17:11:00,
2013-05-18 13:16:00,72.3,66.5,29.93,South,190,8.1,8.1,82,0.00,BKN,OVC,0.00,WeatherDisplay:10.37,2013-05-18 17:16:00,
2013-05-18 13:21:00,72.3,65.8,29.92,South,190,8.1,8.1,80,0.00,BKN,OVC,0.00,WeatherDisplay:10.37,2013-05-18 17:21:00,
2013-05-18 13:26:00,72.5,66.3,29.92,South,190,8.1,8.1,81,0.00,BKN,OVC,0.00,WeatherDisplay:10.37,2013-05-18 17:26:00,
2013-05-18 13:32:00,72.7,66.2,29.93,South,190,8.1,8.1,80,0.00,BKN,OVC,0.00,WeatherDisplay:10.37,2013-05-18 17:32:00,
2013-05-18 13:37:00,72.9,66.7,29.93,South,190,8.1,8.1,81,0.00,BKN,OVC,0.00,WeatherDisplay:10.37,2013-05-18 17:37:00,
2013-05-18 13:42:00,73.0,66.9,29.93,South,190,8.1,8.1,81,0.00,BKN,OVC,0.00,WeatherDisplay:10.37,2013-05-18 17:42:00,
2013-05-18 13:47:00,73.0,66.5,29.93,South,190,8.1,8.1,80,0.00,BKN,OVC,0.00,WeatherDisplay:10.37,2013-05-18 17:47:00,
2013-05-18 13:52:00,73.0,66.5,29.93,South,190,8.1,8.1,80,0.00,BKN,OVC,0.00,WeatherDisplay:10.37,2013-05-18 17:52:00,
2013-05-18 13:57:00,72.7,66.5,29.92,South,190,8.1,8.1,81,0.00,BKN,OVC,0.00,WeatherDisplay:10.37,2013-05-18 17:57:00,
2013-05-18 14:02:00,73.0,66.9,29.92,South,190,8.1,8.1,81,0.00,BKN,OVC,0.00,WeatherDisplay:10.37,2013-05-18 18:02:00,
2013-05-18 14:07:00,73.0,66.5,29.92,South,190,8.1,8.1,80,0.00,BKN,OVC,0.00,WeatherDisplay:10.37,2013-05-18 18:07:00,
2013-05-18 14:12:00,73.0,66.1,29.92,South,190,8.1,8.1,79,0.00,BKN,OVC,0.00,WeatherDisplay:10.37,2013-05-18 18:12:00,
2013-05-18 14:17:00,72.9,66.3,29.92,South,180,8.1,8.1,80,0.00,OVC,,0.00,WeatherDisplay:10.37,2013-05-18 18:17:00,
2013-05-18 14:22:00,72.7,65.8,29.92,South,180,6.9,6.9,79,0.00,OVC,,0.00,WeatherDisplay:10.37,2013-05-18 18:22:00,
2013-05-18 14:27:00,72.5,65.6,29.92,South,180,6.9,6.9,79,0.00,OVC,,0.00,WeatherDisplay:10.37,2013-05-18 18:27:00,
2013-05-18 14:32:00,72.5,65.6,29.92,South,180,6.9,6.9,79,0.00,OVC,,0.00,WeatherDisplay:10.37,2013-05-18 18:32:00,
2013-05-18 14:37:00,72.3,65.8,29.92,South,180,6.9,6.9,80,0.00,OVC,,0.00,WeatherDisplay:10.37,2013-05-18 18:37:00,
2013-05-18 14:42:00,72.0,65.8,29.91,South,180,6.9,6.9,81,0.00,OVC,,0.00,WeatherDisplay:10.37,2013-05-18 18:42:00,
2013-05-18 14:47:00,72.0,65.8,29.91,South,180,6.9,6.9,81,0.00,OVC,,0.00,WeatherDisplay:10.37,2013-05-18 18:47:00,
2013-05-18 14:52:00,71.8,65.6,29.92,South,180,6.9,6.9,81,0.00,OVC,,0.00,WeatherDisplay:10.37,2013-05-18 18:52:00,
2013-05-18 14:57:00,71.8,65.6,29.92,South,180,6.9,6.9,81,0.00,OVC,,0.00,WeatherDisplay:10.37,2013-05-18 18:57:00,
2013-05-18 15:02:00,71.8,65.6,29.92,South,180,6.9,6.9,81,0.00,OVC,,0.00,WeatherDisplay:10.37,2013-05-18 19:02:00,
2013-05-18 15:07:00,71.8,66.0,29.91,South,180,6.9,6.9,82,0.00,OVC,,0.00,WeatherDisplay:10.37,2013-05-18 19:07:00,
2013-05-18 15:12:00,71.8,65.6,29.92,South,180,6.9,6.9,81,0.00,OVC,,0.00,WeatherDisplay:10.37,2013-05-18 19:12:00,
2013-05-18 15:17:00,71.8,65.6,29.91,South,170,6.9,6.9,81,0.00,OVC,,0.00,WeatherDisplay:10.37,2013-05-18 19:17:00,
2013-05-18 15:22:00,71.8,65.6,29.91,South,170,6.9,6.9,81,0.00,OVC,,0.00,WeatherDisplay:10.37,2013-05-18 19:22:00,
2013-05-18 15:27:00,71.4,65.6,29.91,South,170,6.9,6.9,82,0.00,OVC,,0.00,WeatherDisplay:10.37,2013-05-18 19:27:00,
2013-05-18 15:32:00,71.4,65.6,29.91,South,170,6.9,6.9,82,0.00,OVC,,0.00,WeatherDisplay:10.37,2013-05-18 19:32:00,
2013-05-18 15:37:00,71.4,65.6,29.91,South,170,6.9,6.9,82,0.00,OVC,,0.00,WeatherDisplay:10.37,2013-05-18 19:37:00,
2013-05-18 15:42:00,71.2,65.8,29.91,South,170,6.9,6.9,83,0.00,OVC,,0.00,WeatherDisplay:10.37,2013-05-18 19:42:00,
2013-05-18 15:47:00,70.9,65.5,29.91,South,170,6.9,6.9,83,0.00,OVC,,0.00,WeatherDisplay:10.37,2013-05-18 19:47:00,
2013-05-18 15:52:00,70.9,65.8,29.91,South,170,6.9,6.9,84,0.00,OVC,,0.00,WeatherDisplay:10.37,2013-05-18 19:52:00,
2013-05-18 15:57:00,70.5,65.4,29.90,South,170,6.9,6.9,84,0.00,OVC,,0.00,WeatherDisplay:10.37,2013-05-18 19:57:00,
2013-05-18 16:02:00,70.5,65.8,29.90,South,170,6.9,6.9,85,0.00,OVC,,0.00,WeatherDisplay:10.37,2013-05-18 20:02:00,
2013-05-18 16:07:00,70.3,65.6,29.90,South,170,6.9,6.9,85,0.00,OVC,,0.00,WeatherDisplay:10.37,2013-05-18 20:07:00,
2013-05-18 16:12:00,70.3,66.0,29.90,South,170,6.9,6.9,86,0.00,OVC,,0.00,WeatherDisplay:10.37,2013-05-18 20:12:00,
2013-05-18 16:17:00,70.2,65.8,29.90,SSW,200,6.9,6.9,86,0.00,OVC,,0.00,WeatherDisplay:10.37,2013-05-18 20:17:00,
2013-05-18 16:22:00,70.2,65.8,29.90,SSW,200,4.6,4.6,86,0.00,OVC,,0.00,WeatherDisplay:10.37,2013-05-18 20:22:00,
2013-05-18 16:27:00,70.2,65.8,29.91,SSW,200,4.6,4.6,86,0.00,OVC,,0.00,WeatherDisplay:10.37,2013-05-18 20:27:00,
2013-05-18 16:32:00,70.0,65.9,29.90,SSW,200,4.6,4.6,87,0.00,OVC,,0.00,WeatherDisplay:10.37,2013-05-18 20:32:00,
2013-05-18 16:37:00,69.8,65.8,29.90,SSW,200,4.6,4.6,87,0.00,OVC,,0.00,WeatherDisplay:10.37,2013-05-18 20:37:00,
2013-05-18 16:42:00,69.6,65.6,29.90,SSW,200,4.6,4.6,87,0.00,OVC,,0.00,WeatherDisplay:10.37,2013-05-18 20:42:00,
2013-05-18 16:47:00,69.6,65.6,29.90,SSW,200,4.6,4.6,87,0.00,OVC,,0.00,WeatherDisplay:10.37,2013-05-18 20:47:00,
2013-05-18 16:52:00,69.6,65.9,29.90,SSW,200,4.6,4.6,88,0.00,OVC,,0.00,WeatherDisplay:10.37,2013-05-18 20:52:00,
2013-05-18 16:57:00,69.6,65.9,29.89,SSW,200,4.6,4.6,88,0.00,OVC,,0.00,WeatherDisplay:10.37,2013-05-18 20:57:00,
2013-05-18 17:02:00,69.6,65.9,29.89,SSW,200,4.6,4.6,88,0.00,OVC,,0.00,WeatherDisplay:10.37,2013-05-18 21:02:00,
2013-05-18 17:07:00,69.6,65.9,29.89,SSW,200,4.6,4.6,88,0.00,OVC,,0.00,WeatherDisplay:10.37,2013-05-18 21:07:00,
2013-05-18 17:12:00,69.6,65.9,29.89,SSW,200,4.6,4.6,88,0.00,OVC,,0.00,WeatherDisplay:10.37,2013-05-18 21:12:00,
2013-05-18 17:17:00,69.6,65.9,29.89,SSW,210,4.6,4.6,88,0.00,OVC,,0.00,WeatherDisplay:10.37,2013-05-18 21:17:00,
2013-05-18 17:22:00,69.6,66.2,29.89,SSW,210,3.5,3.5,89,0.00,OVC,,0.00,WeatherDisplay:10.37,2013-05-18 21:22:00,
2013-05-18 17:27:00,69.6,66.2,29.89,SSW,210,3.5,3.5,89,0.00,OVC,,0.00,WeatherDisplay:10.37,2013-05-18 21:27:00,
2013-05-18 17:32:00,69.4,66.1,29.89,SSW,210,3.5,3.5,89,0.00,OVC,,0.00,WeatherDisplay:10.37,2013-05-18 21:32:00,
2013-05-18 17:37:00,69.6,66.2,29.89,SSW,210,3.5,3.5,89,0.00,OVC,,0.00,WeatherDisplay:10.37,2013-05-18 21:37:00,
2013-05-18 17:42:00,69.6,66.2,29.89,SSW,210,3.5,3.5,89,0.00,OVC,,0.00,WeatherDisplay:10.37,2013-05-18 21:42:00,
2013-05-18 17:47:00,69.6,66.2,29.89,SSW,210,3.5,3.5,89,0.00,OVC,,0.00,WeatherDisplay:10.37,2013-05-18 21:47:00,
2013-05-18 17:52:00,69.6,66.2,29.89,SSW,210,3.5,3.5,89,0.00,OVC,,0.00,WeatherDisplay:10.37,2013-05-18 21:52:00,
2013-05-18 17:57:00,69.6,66.2,29.89,SSW,210,3.5,3.5,89,0.00,OVC,,0.00,WeatherDisplay:10.37,2013-05-18 21:57:00,
2013-05-18 18:02:00,69.6,66.2,29.89,SSW,210,3.5,3.5,89,0.00,OVC,,0.00,WeatherDisplay:10.37,2013-05-18 22:02:00,
2013-05-18 18:07:00,69.6,66.2,29.89,SSW,210,3.5,3.5,89,0.00,OVC,,0.00,WeatherDisplay:10.37,2013-05-18 22:07:00,
2013-05-18 18:12:00,69.6,66.2,29.89,SSW,210,3.5,3.5,89,0.00,OVC,,0.00,WeatherDisplay:10.37,2013-05-18 22:12:00,
2013-05-18 18:17:00,69.6,66.2,29.89,SSE,160,4.6,4.6,89,0.00,OVC,,0.00,WeatherDisplay:10.37,2013-05-18 22:17:00,
2013-05-18 18:22:00,69.4,66.1,29.89,SSE,160,4.6,4.6,89,0.00,OVC,,0.00,WeatherDisplay:10.37,2013-05-18 22:22:00,
2013-05-18 18:27:00,69.4,66.1,29.89,SSE,160,4.6,4.6,89,0.00,OVC,,0.00,WeatherDisplay:10.37,2013-05-18 22:27:00,
2013-05-18 18:32:00,69.4,66.1,29.89,SSE,160,4.6,4.6,89,0.00,OVC,,0.00,WeatherDisplay:10.37,2013-05-18 22:32:00,
2013-05-18 18:37:00,69.4,66.1,29.88,SSE,160,4.6,4.6,89,0.00,OVC,,0.00,WeatherDisplay:10.37,2013-05-18 22:37:00,
2013-05-18 18:42:00,69.3,65.9,29.88,SSE,160,4.6,4.6,89,0.00,OVC,,0.00,WeatherDisplay:10.37,2013-05-18 22:42:00,
2013-05-18 18:47:00,69.4,66.1,29.89,SSE,160,4.6,0.0,89,0.00,OVC,,0.00,WeatherDisplay:10.37,2013-05-18 22:47:00,
2013-05-18 18:52:00,69.1,66.0,29.88,SSE,160,0.0,0.0,90,0.00,OVC,,0.00,WeatherDisplay:10.37,2013-05-18 22:52:00,
2013-05-18 18:57:00,69.1,66.0,29.88,SSE,160,0.0,0.0,90,0.00,OVC,,0.00,WeatherDisplay:10.37,2013-05-18 22:57:00,
2013-05-18 19:02:00,69.1,66.0,29.88,SSE,160,0.0,0.0,90,0.00,OVC,,0.00,WeatherDisplay:10.37,2013-05-18 23:02:00,
2013-05-18 19:07:00,69.1,66.0,29.89,SSE,160,0.0,0.0,90,0.00,OVC,,0.00,WeatherDisplay:10.37,2013-05-18 23:07:00,
2013-05-18 19:12:00,69.1,66.0,29.88,SSE,160,0.0,0.0,90,0.00,OVC,,0.00,WeatherDisplay:10.37,2013-05-18 23:12:00,
2013-05-18 19:17:00,69.1,66.0,29.89,SSE,160,0.0,0.0,90,0.00,OVC,,0.00,WeatherDisplay:10.37,2013-05-18 23:17:00,
2013-05-18 19:22:00,68.9,65.8,29.89,SSE,160,0.0,0.0,90,0.00,OVC,,0.00,WeatherDisplay:10.37,2013-05-18 23:22:00,
2013-05-18 19:27:00,68.9,65.8,29.89,SSE,160,0.0,0.0,90,0.00,OVC,,0.00,WeatherDisplay:10.37,2013-05-18 23:27:00,
2013-05-18 19:32:00,68.9,65.8,29.90,SSE,160,0.0,0.0,90,0.00,OVC,,0.00,WeatherDisplay:10.37,2013-05-18 23:32:00,
2013-05-18 19:37:00,68.9,65.8,29.89,SSE,160,0.0,0.0,90,0.00,OVC,,0.00,WeatherDisplay:10.37,2013-05-18 23:37:00,
2013-05-18 19:42:00,68.9,66.2,29.90,SSE,160,0.0,0.0,91,0.00,OVC,,0.00,WeatherDisplay:10.37,2013-05-18 23:42:00,
2013-05-18 19:47:00,68.7,65.7,29.89,SSE,160,0.0,0.0,90,0.00,OVC,,0.00,WeatherDisplay:10.37,2013-05-18 23:47:00,
2013-05-18 19:52:00,68.7,65.7,29.90,SSE,160,0.0,0.0,90,0.00,OVC,,0.00,WeatherDisplay:10.37,2013-05-18 23:52:00,
2013-05-18 19:57:00,68.7,65.7,29.90,SSE,160,0.0,0.0,90,0.00,OVC,,0.00,WeatherDisplay:10.37,2013-05-18 23:57:00,
2013-05-18 20:02:00,68.7,65.7,29.90,SSE,160,0.0,0.0,90,0.00,OVC,,0.00,WeatherDisplay:10.37,2013-05-19 00:02:00,
2013-05-18 20:07:00,68.7,66.0,29.89,SSE,160,0.0,0.0,91,0.00,OVC,,0.00,WeatherDisplay:10.37,2013-05-19 00:07:00,
2013-05-18 20:12:00,68.5,65.8,29.90,SSE,160,0.0,0.0,91,0.00,OVC,,0.00,WeatherDisplay:10.37,2013-05-19 00:12:00,
2013-05-18 20:17:00,68.5,65.8,29.90,SSE,160,0.0,0.0,91,0.00,OVC,,0.00,WeatherDisplay:10.37,2013-05-19 00:17:00,
2013-05-18 20:22:00,68.5,65.8,29.90,SSE,160,0.0,0.0,91,0.00,OVC,,0.00,WeatherDisplay:10.37,2013-05-19 00:22:00,
2013-05-18 20:27:00,68.5,65.8,29.90,SSE,160,0.0,0.0,91,0.00,OVC,,0.00,WeatherDisplay:10.37,2013-05-19 00:27:00,
2013-05-18 20:32:00,68.5,65.8,29.90,SSE,160,0.0,0.0,91,0.00,OVC,,0.00,WeatherDisplay:10.37,2013-05-19 00:32:00,
2013-05-18 20:37:00,68.4,65.6,29.90,SSE,160,0.0,0.0,91,0.00,OVC,,0.00,WeatherDisplay:10.37,2013-05-19 00:37:00,
2013-05-18 20:42:00,68.4,65.6,29.90,SSE,160,0.0,0.0,91,0.00,OVC,,0.00,WeatherDisplay:10.37,2013-05-19 00:42:00,
2013-05-18 20:47:00,68.4,65.6,29.90,SSE,160,0.0,0.0,91,0.00,OVC,,0.00,WeatherDisplay:10.37,2013-05-19 00:47:00,
2013-05-18 20:52:00,68.4,65.9,29.90,SSE,160,0.0,0.0,92,0.00,OVC,,0.00,WeatherDisplay:10.37,2013-05-19 00:52:00,
2013-05-18 20:57:00,68.2,65.8,29.91,SSE,160,0.0,0.0,92,0.00,OVC,,0.00,WeatherDisplay:10.37,2013-05-19 00:57:00,
2013-05-18 21:02:00,68.2,65.8,29.91,SSE,160,0.0,0.0,92,0.00,OVC,,0.00,WeatherDisplay:10.37,2013-05-19 01:02:00,
2013-05-18 21:07:00,68.2,65.8,29.91,SSE,160,0.0,0.0,92,0.00,OVC,,0.00,WeatherDisplay:10.37,2013-05-19 01:07:00,
2013-05-18 21:12:00,68.2,65.8,29.91,SSE,160,0.0,0.0,92,0.00,OVC,,0.00,WeatherDisplay:10.37,2013-05-19 01:12:00,
2013-05-18 21:17:00,68.2,65.8,29.91,SE,130,3.5,3.5,92,0.00,OVC,,0.00,WeatherDisplay:10.37,2013-05-19 01:17:00,
2013-05-18 21:22:00,68.0,65.6,29.90,SE,130,3.5,3.5,92,0.00,OVC,,0.00,WeatherDisplay:10.37,2013-05-19 01:22:00,
2013-05-18 21:27:00,67.8,65.4,29.91,SE,130,3.5,3.5,92,0.00,OVC,,0.00,WeatherDisplay:10.37,2013-05-19 01:27:00,
2013-05-18 21:32:00,67.8,65.4,29.91,SE,130,3.5,3.5,92,0.00,OVC,,0.00,WeatherDisplay:10.37,2013-05-19 01:32:00,
2013-05-18 21:37:00,67.8,65.4,29.91,SE,130,3.5,3.5,92,0.00,OVC,,0.00,WeatherDisplay:10.37,2013-05-19 01:37:00,
2013-05-18 21:42:00,67.8,65.1,29.91,SE,130,3.5,3.5,91,0.00,OVC,,0.00,WeatherDisplay:10.37,2013-05-19 01:42:00,
2013-05-18 21:47:00,67.8,65.4,29.91,ESE,120,3.5,3.5,92,0.00,OVC,,0.00,WeatherDisplay:10.37,2013-05-19 01:47:00,
2013-05-18 21:52:00,67.8,65.4,29.91,ESE,120,3.5,3.5,92,0.00,OVC,,0.00,WeatherDisplay:10.37,2013-05-19 01:52:00,
2013-05-18 21:57:00,67.8,65.4,29.91,ESE,120,3.5,3.5,92,0.00,OVC,,0.00,WeatherDisplay:10.37,2013-05-19 01:57:00,
2013-05-18 22:02:00,67.6,65.2,29.90,ESE,120,3.5,3.5,92,0.00,OVC,,0.00,WeatherDisplay:10.37,2013-05-19 02:02:00,
2013-05-18 22:07:00,67.6,65.2,29.90,ESE,120,3.5,3.5,92,0.00,OVC,,0.00,WeatherDisplay:10.37,2013-05-19 02:07:00,
2013-05-18 22:12:00,67.5,65.1,29.91,ESE,120,3.5,3.5,92,0.00,OVC,,0.00,WeatherDisplay:10.37,2013-05-19 02:12:00,
2013-05-18 22:17:00,67.5,65.1,29.91,SE,140,3.5,3.5,92,0.00,OVC,,0.00,WeatherDisplay:10.37,2013-05-19 02:17:00,
2013-05-18 22:22:00,67.5,65.1,29.91,SE,140,3.5,3.5,92,0.00,OVC,,0.00,WeatherDisplay:10.37,2013-05-19 02:22:00,
2013-05-18 22:27:00,67.3,64.9,29.91,SE,140,3.5,3.5,92,0.00,OVC,,0.00,WeatherDisplay:10.37,2013-05-19 02:27:00,
2013-05-18 22:32:00,67.3,64.9,29.91,SE,140,3.5,3.5,92,0.00,OVC,,0.00,WeatherDisplay:10.37,2013-05-19 02:32:00,
2013-05-18 22:37:00,67.3,64.9,29.91,SE,140,3.5,3.5,92,0.00,OVC,,0.00,WeatherDisplay:10.37,2013-05-19 02:37:00,
2013-05-18 22:42:00,67.3,64.9,29.91,SE,140,3.5,3.5,92,0.00,OVC,,0.00,WeatherDisplay:10.37,2013-05-19 02:42:00,
2013-05-18 22:47:00,67.3,64.9,29.91,SE,140,3.5,3.5,92,0.00,OVC,,0.00,WeatherDisplay:10.37,2013-05-19 02:47:00,
2013-05-18 22:52:00,67.1,64.7,29.91,SE,140,3.5,3.5,92,0.00,OVC,,0.00,WeatherDisplay:10.37,2013-05-19 02:52:00,
2013-05-18 22:57:00,67.1,64.7,29.91,SE,140,3.5,3.5,92,0.00,OVC,,0.00,WeatherDisplay:10.37,2013-05-19 02:57:00,
2013-05-18 23:02:00,66.9,64.5,29.91,SE,140,3.5,3.5,92,0.00,OVC,,0.00,WeatherDisplay:10.37,2013-05-19 03:02:00,
2013-05-18 23:07:00,66.9,64.5,29.91,SE,140,3.5,3.5,92,0.00,OVC,,0.00,WeatherDisplay:10.37,2013-05-19 03:07:00,
2013-05-18 23:12:00,66.9,64.8,29.91,SE,140,3.5,3.5,93,0.00,OVC,,0.00,WeatherDisplay:10.37,2013-05-19 03:12:00,
2013-05-18 23:17:00,66.9,64.8,29.91,SE,140,3.5,0.0,93,0.00,OVC,,0.00,WeatherDisplay:10.37,2013-05-19 03:17:00,
2013-05-18 23:22:00,66.9,64.8,29.91,SE,140,0.0,0.0,93,0.00,OVC,,0.00,WeatherDisplay:10.37,2013-05-19 03:22:00,
2013-05-18 23:27:00,66.9,64.8,29.91,SE,140,0.0,0.0,93,0.00,OVC,,0.00,WeatherDisplay:10.37,2013-05-19 03:27:00,
2013-05-18 23:32:00,66.9,64.8,29.91,SE,140,0.0,0.0,93,0.00,OVC,,0.00,WeatherDisplay:10.37,2013-05-19 03:32:00,
2013-05-18 23:37:00,66.7,64.7,29.91,SE,140,0.0,0.0,93,0.00,OVC,,0.00,WeatherDisplay:10.37,2013-05-19 03:37:00,
2013-05-18 23:42:00,66.7,64.7,29.91,SE,140,0.0,0.0,93,0.00,OVC,,0.00,WeatherDisplay:10.37,2013-05-19 03:42:00,
2013-05-18 23:47:00,66.7,64.7,29.90,SE,130,3.5,3.5,93,0.00,OVC,,0.00,WeatherDisplay:10.37,2013-05-19 03:47:00,
2013-05-18 23:52:00,66.7,64.7,29.90,SE,130,3.5,3.5,93,0.00,OVC,,0.00,WeatherDisplay:10.37,2013-05-19 03:52:00,
2013-05-18 23:57:00,66.7,64.7,29.90,SE,130,3.5,3.5,93,0.00,OVC,,0.00,WeatherDisplay:10.37,2013-05-19 03:57:00,